📊 Raw Sensor Data
Showing records 43226 to 43250 of 85,014 total
| ID | Distance (ft) | Battery V | Battery A | Int Temp (°F) | Int Humid (%) | Ext Temp (°F) | Solar V | RSSI | SNR | Time Stamp |
|---|---|---|---|---|---|---|---|---|---|---|
| 41801 | 15.7 | 4.10 | 0 | 86 | 42 | 85 | 5.10 | -75 | 9 | 05/27/2025 12:15 PM |
| 41800 | 15.7 | 3.89 | 0 | 84 | 43 | 84 | 5.10 | -72 | 7 | 05/27/2025 12:00 PM |
| 41799 | 15.8 | 3.89 | 0 | 83 | 42 | 85 | 5.10 | -75 | 7 | 05/27/2025 11:45 AM |
| 41798 | 15.8 | 3.91 | 0 | 82 | 43 | 83 | 5.10 | -74 | 7 | 05/27/2025 11:30 AM |
| 41797 | 15.8 | 3.88 | 0 | 80 | 43 | 84 | 5.10 | -74 | 8 | 05/27/2025 11:15 AM |
| 41796 | 15.8 | 3.88 | 0 | 80 | 42 | 82 | 5.10 | -74 | 7 | 05/27/2025 11:00 AM |
| 41795 | 15.8 | 3.88 | 0 | 79 | 42 | 80 | 5.10 | -74 | 7 | 05/27/2025 10:45 AM |
| 41794 | 15.8 | 3.89 | 0 | 78 | 42 | 80 | 5.10 | -73 | 8 | 05/27/2025 10:30 AM |
| 41793 | 15.8 | 3.88 | 0 | 76 | 42 | 80 | 5.10 | -73 | 8 | 05/27/2025 10:15 AM |
| 41792 | 15.9 | 4.10 | 0 | 75 | 42 | 78 | 5.10 | -74 | 8 | 05/27/2025 10:00 AM |
| 41791 | 15.9 | 4.09 | 0 | 74 | 42 | 78 | 5.10 | -74 | 7 | 05/27/2025 09:45 AM |
| 41790 | 15.9 | 3.88 | 0 | 72 | 42 | 75 | 5.10 | -74 | 8 | 05/27/2025 09:30 AM |
| 41789 | 15.8 | 3.88 | 0 | 69 | 43 | 75 | 5.10 | -72 | 7 | 05/27/2025 09:00 AM |
| 41788 | 15.8 | 3.88 | 0 | 68 | 43 | 74 | 5.10 | -72 | 7 | 05/27/2025 08:45 AM |
| 41787 | 15.9 | 4.03 | 0 | 66 | 43 | 73 | 5.10 | -73 | 8 | 05/27/2025 08:30 AM |
| 41786 | 15.8 | 3.88 | 0 | 64 | 42 | 71 | 5.10 | -73 | 8 | 05/27/2025 08:15 AM |
| 41785 | 15.8 | 3.88 | 0 | 63 | 42 | 70 | 5.10 | -72 | 8 | 05/27/2025 08:00 AM |
| 41784 | 15.8 | 3.88 | 0 | 61 | 41 | 68 | 5.10 | -74 | 8 | 05/27/2025 07:45 AM |
| 41783 | 15.8 | 4.04 | 51 | 59 | 41 | 66 | 4.50 | -72 | 8 | 05/27/2025 07:30 AM |
| 41782 | 15.7 | 4.00 | 8 | 57 | 41 | 63 | 4.50 | -73 | 9 | 05/27/2025 07:15 AM |
| 41781 | 15.7 | 3.98 | 0 | 55 | 41 | 60 | 4.50 | -72 | 7 | 05/27/2025 07:00 AM |
| 41780 | 15.6 | 3.94 | 8 | 54 | 41 | 60 | 4.50 | -72 | 8 | 05/27/2025 06:45 AM |
| 41779 | 15.6 | 3.92 | 0 | 52 | 42 | 57 | 4.60 | -72 | 8 | 05/27/2025 06:30 AM |
| 41778 | 15.6 | 3.77 | 0 | 50 | 42 | 54 | 4.50 | -73 | 8 | 05/27/2025 06:15 AM |
| 41777 | 15.6 | 3.87 | -8 | 49 | 42 | 51 | 4.50 | -72 | 8 | 05/27/2025 06:00 AM |